Location: Allonne
(49.4086°N, 2.1143°E)
Time: 14:54:23
(UTC+00:00)

DMSP B5D2-2 - Pass Details

Date: 03 August 2024
Orbit: 787 x 802 km, 98.3° (Epoch: 09 September)

Event Time Altitude Azimuth Distance (km) Brightness Sun altitude
Rises 03:01:51 0° 153° (SSE) 3,280 7.1 -11.8°
Reaches altitude 10° 03:04:11 10° 151° (SSE) 2,353 6.4 -11.5°
Maximum altitude 03:09:19 63° 71° (ENE) 881 4.6 -10.9°
Drops below altitude 10° 03:14:28 10° 351° (N) 2,363 7.0 -10.3°
Sets 03:16:48 0° 349° (NNW) 3,295 7.7 -10.0°
